Terminal Aerodrome Forecast
Issued by NWS Tulsa, OK

Home | Current Version | Previous Version | Text Only | Print | Product List | Glossary On
Versions: 1 2 3 4 5 6 7 8 9 10 11 12 13 14 15 16 17 18
000
FTUS44 KTSA 230500
TAFTUL
TAF
KTUL 230520Z 2306/2406 13004KT P6SM VCSH OVC020
     FM231500 14011KT P6SM OVC015 PROB30 2315/2320 4SM -TSRA BR
      BKN015CB
     FM232000 14012KT 5SM -RA BR BKN015
      TEMPO 2320/2324 2SM -TSRA BR BKN015CB
     FM240000 15012KT 3SM -TSRA BR BKN015CB=

USA.gov is the U.S. government's official web portal to all federal, state and local government web resources and services.